GW6562 Weather Reports


Display with metric or nautical units.
time (UTC)temp
F
wind
direction
speed
MPH
gust
MPH
rain 1hr
in
rain 24hr
in
rain mn
in
humidity
%
barometer
mb
20260510185959 51 24 8.0 21.0 0.00 0.00 0.00 70 1014.6
20260510185459 52 355 11.0 19.0 0.00 0.00 0.00 70 1014.6
20260510184958 52 5 8.0 22.0 0.00 0.00 0.00 69 1014.6
20260510183957 52 355 13.0 18.0 0.00 0.00 0.00 70 1014.6
20260510182957 52 13 10.0 22.0 0.00 0.00 0.00 70 1014.6
20260510182457 52 37 16.0 23.0 0.00 0.00 0.00 70 1014.7
20260510181958 52 355 13.0 23.0 0.00 0.00 0.00 70 1014.7
20260510181458 53 360 19.0 23.0 0.00 0.00 0.00 69 1014.7
20260510180957 53 355 13.0 23.0 0.00 0.00 0.00 70 1014.7
20260510180458 53 349 13.0 25.0 0.00 0.00 0.00 69 1014.7
20260510180000 53 18 22.0 23.0 0.00 0.00 0.00 69 1014.6
20260510175457 54 13 16.0 20.0 0.00 0.00 0.00 69 1014.6
20260510174958 54 29 11.0 20.0 0.00 0.00 0.00 69 1014.7
20260510174458 54 11 16.0 24.0 0.00 0.00 0.00 69 1014.7
20260510173957 54 347 12.0 24.0 0.00 0.00 0.00 68 1014.7
20260510173458 55 350 20.0 23.0 0.00 0.00 0.00 68 1014.6
20260510172957 55 5 10.0 22.0 0.00 0.00 0.00 68 1014.7
20260510172457 55 345 20.0 22.0 0.00 0.00 0.00 67 1014.7
20260510171958 55 20 16.0 19.0 0.00 0.00 0.00 67 1014.6
20260510170958 55 11 15.0 17.0 0.00 0.00 0.00 68 1014.6
20260510170458 55 5 10.0 19.0 0.00 0.00 0.00 68 1014.8
20260510165500 55 34 14.0 21.0 0.00 0.00 0.00 67 1014.8
20260510164958 55 5 10.0 21.0 0.00 0.00 0.00 68 1014.8
20260510164457 55 21 16.0 21.0 0.00 0.00 0.00 68 1014.9
20260510162957 56 360 13.0 18.0 0.00 0.00 0.00 68 1015.1
20260510161457 56 17 11.0 22.0 0.00 0.00 0.00 67 1015.2
20260510160956 56 42 14.0 21.0 0.00 0.00 0.00 67 1015.2
20260510160000 56 49 9.0 21.0 0.00 0.00 0.00 67 1015.2
20260510155500 57 37 11.0 16.0 0.00 0.00 0.00 68 1015.2
20260510154958 56 46 11.0 18.0 0.00 0.00 0.00 68 1015.3
20260510154457 56 344 12.0 21.0 0.00 0.00 0.00 69 1015.3
20260510153958 56 9 14.0 25.0 0.00 0.00 0.00 68 1015.3
20260510153459 56 9 15.0 25.0 0.00 0.00 0.00 68 1015.4
20260510152957 56 11 18.0 21.0 0.00 0.00 0.00 69 1015.4
20260510152458 56 14 9.0 21.0 0.00 0.00 0.00 67 1015.5
20260510151959 57 9 12.0 19.0 0.00 0.00 0.00 67 1015.5
20260510151459 57 28 12.0 19.0 0.00 0.00 0.00 68 1015.5
20260510150959 56 11 11.0 21.0 0.00 0.00 0.00 68 1015.6
20260510150458 57 33 16.0 21.0 0.00 0.00 0.00 68 1015.5
20260510145959 57 34 16.0 21.0 0.00 0.00 0.00 69 1015.6
20260510145456 57 5 13.0 22.0 0.00 0.00 0.00 68 1015.7
20260510144957 57 19 17.0 21.0 0.00 0.00 0.00 69 1015.7
20260510144457 56 28 13.0 21.0 0.00 0.00 0.00 68 1015.7
20260510143457 56 355 8.0 20.0 0.00 0.00 0.00 67 1015.8
20260510141459 57 34 16.0 16.0 0.00 0.00 0.00 69 1016.0
20260510140957 57 29 12.0 16.0 0.00 0.00 0.00 69 1016.0
20260510140457 56 31 6.0 18.0 0.00 0.00 0.00 69 1015.9
20260510135957 56 9 12.0 15.0 0.00 0.00 0.00 69 1016.2
20260510135456 56 17 10.0 17.0 0.00 0.00 0.00 69 1016.2
20260510134957 56 41 12.0 17.0 0.00 0.00 0.00 70 1016.2
20260510134458 56 17 9.0 17.0 0.00 0.00 0.00 69 1016.2
20260510133958 57 12 10.0 17.0 0.00 0.00 0.00 70 1016.2
20260510133459 56 351 9.0 14.0 0.00 0.00 0.00 70 1016.2
20260510132958 56 9 9.0 17.0 0.00 0.00 0.00 70 1016.3
20260510131957 56 22 13.0 15.0 0.00 0.00 0.00 72 1016.5
20260510131457 56 27 11.0 16.0 0.00 0.00 0.00 71 1016.4
20260510130957 56 28 11.0 16.0 0.00 0.00 0.00 71 1016.5
20260510130457 56 30 15.0 16.0 0.00 0.00 0.00 70 1016.6
20260510125957 56 18 15.0 16.0 0.00 0.00 0.00 71 1016.5
20260510125458 55 36 6.0 18.0 0.00 0.00 0.00 71 1016.6
20260510124457 56 47 12.0 16.0 0.00 0.00 0.00 72 1016.7
20260510123457 56 14 13.0 19.0 0.00 0.00 0.00 71 1016.6
20260510121957 55 27 9.0 17.0 0.00 0.00 0.00 72 1016.8
20260510121457 55 15 8.0 15.0 0.00 0.00 0.00 72 1016.8
20260510120957 55 25 9.0 17.0 0.00 0.00 0.00 72 1016.9
20260510120457 55 24 11.0 17.0 0.00 0.00 0.00 72 1016.8
20260510115959 55 49 13.0 16.0 0.00 0.00 0.00 71 1016.8
20260510115458 55 24 5.0 16.0 0.00 0.00 0.00 71 1016.8
20260510114458 56 336 9.0 16.0 0.00 0.00 0.00 71 1016.9
20260510113958 56 57 7.0 17.0 0.00 0.00 0.00 72 1017.0
20260510113457 55 51 9.0 19.0 0.00 0.00 0.00 71 1017.1
20260510112957 55 44 13.0 21.0 0.00 0.00 0.00 72 1017.0
20260510111956 55 35 13.0 17.0 0.00 0.00 0.00 74 1017.0
20260510111457 55 22 6.0 17.0 0.00 0.00 0.00 73 1017.2
20260510110958 55 24 11.0 17.0 0.00 0.00 0.00 73 1017.3
20260510110458 55 56 14.0 15.0 0.00 0.00 0.00 74 1017.3
20260510105957 54 5 12.0 18.0 0.00 0.00 0.00 74 1017.3
20260510105456 54 54 10.0 18.0 0.00 0.00 0.00 73 1017.4
20260510104957 54 35 7.0 17.0 0.00 0.00 0.00 74 1017.4
20260510104458 54 35 16.0 17.0 0.00 0.00 0.00 73 1017.4
20260510103958 54 53 13.0 17.0 0.00 0.00 0.00 74 1017.4
20260510103457 54 24 10.0 16.0 0.00 0.00 0.00 75 1017.4
20260510102956 54 14 12.0 16.0 0.00 0.00 0.00 74 1017.5
20260510102459 54 14 13.0 16.0 0.00 0.00 0.00 74 1017.6
20260510101957 54 21 4.0 18.0 0.00 0.00 0.00 74 1017.7
20260510101457 54 57 13.0 18.0 0.00 0.00 0.00 74 1017.7
20260510100958 54 27 13.0 16.0 0.00 0.00 0.00 74 1017.7
20260510100457 54 44 7.0 17.0 0.00 0.00 0.00 74 1017.8
20260510095457 55 26 4.0 14.0 0.00 0.00 0.00 75 1017.7
20260510093957 53 24 9.0 14.0 0.00 0.00 0.00 77 1017.7
20260510093457 53 41 4.0 14.0 0.00 0.00 0.00 77 1017.8
20260510092957 52 73 7.0 16.0 0.00 0.00 0.00 77 1017.7
20260510092457 52 30 5.0 13.0 0.00 0.00 0.00 77 1017.7
20260510091956 52 88 9.0 13.0 0.00 0.00 0.00 78 1017.9
20260510090957 52 16 5.0 18.0 0.00 0.00 0.00 78 1017.7
20260510090457 51 89 8.0 18.0 0.00 0.00 0.00 78 1017.7
20260510085959 51 51 5.0 15.0 0.00 0.00 0.00 78 1017.8
20260510084959 51 32 8.0 16.0 0.00 0.00 0.00 78 1017.9
20260510084458 51 9 11.0 16.0 0.00 0.00 0.00 78 1017.9
20260510083459 51 54 12.0 17.0 0.00 0.00 0.00 78 1017.9
20260510082959 51 5 6.0 14.0 0.00 0.00 0.00 79 1017.9
20260510081959 51 35 11.0 15.0 0.00 0.00 0.00 79 1017.8
20260510081458 51 27 4.0 14.0 0.00 0.00 0.00 79 1017.8
20260510080959 51 19 8.0 16.0 0.00 0.00 0.00 79 1017.8
20260510080458 51 44 12.0 16.0 0.00 0.00 0.00 79 1017.8
20260510080001 51 59 5.0 16.0 0.00 0.00 0.00 79 1017.8
20260510075458 51 36 11.0 16.0 0.00 0.00 0.00 79 1017.8
20260510074958 51 20 10.0 16.0 0.00 0.00 0.00 79 1017.8
20260510074459 51 23 9.0 16.0 0.00 0.00 0.00 79 1017.7
20260510073959 51 61 9.0 15.0 0.00 0.00 0.00 79 1017.8
20260510073459 51 35 11.0 15.0 0.00 0.00 0.00 79 1017.7
20260510072958 52 31 10.0 16.0 0.00 0.00 0.00 79 1017.5
20260510072459 52 32 13.0 16.0 0.00 0.00 0.00 80 1017.5
20260510071958 51 20 9.0 16.0 0.00 0.00 0.00 80 1017.5
20260510070958 51 55 14.0 15.0 0.00 0.00 0.00 80 1017.6
20260510070458 51 21 8.0 15.0 0.00 0.00 0.00 80 1017.6
20260510065956 51 44 15.0 17.0 0.00 0.00 0.00 80 1017.7
20260510065457 51 41 10.0 14.0 0.00 0.00 0.00 81 1017.6
20260510064956 51 57 7.0 12.0 0.00 0.00 0.00 81 1017.5
20260510064457 50 44 7.0 13.0 0.00 0.00 0.00 81 1017.5
20260510063457 50 39 7.0 14.0 0.00 0.00 0.00 81 1017.3
20260510061957 50 28 8.0 15.0 0.00 0.00 0.00 82 1017.3
20260510061457 49 33 11.0 16.0 0.00 0.00 0.00 82 1017.3
20260510060456 50 20 8.0 12.0 0.00 0.00 0.00 82 1017.3
20260510060001 50 5 4.0 11.0 0.00 0.00 0.00 82 1017.3
20260510055459 50 55 7.0 11.0 0.00 0.00 0.00 82 1017.2
20260510054959 50 24 8.0 10.0 0.00 0.00 0.00 82 1017.3
20260510054458 50 5 5.0 11.0 0.00 0.00 0.00 82 1017.2
20260510052958 50 5 5.0 10.0 0.00 0.00 0.00 82 1017.0
20260510052458 50 27 5.0 10.0 0.00 0.00 0.00 82 1017.1
20260510051957 49 21 8.0 11.0 0.00 0.00 0.00 82 1017.2
20260510051457 49 355 9.0 12.0 0.00 0.00 0.00 82 1017.1
20260510050958 49 29 10.0 12.0 0.00 0.00 0.00 82 1017.1
20260510045959 49 346 8.0 11.0 0.00 0.00 0.00 82 1017.3
20260510045459 49 22 6.0 11.0 0.00 0.00 0.00 82 1017.2
20260510044958 49 15 5.0 12.0 0.00 0.00 0.00 81 1017.3
20260510044458 50 20 3.0 12.0 0.00 0.00 0.00 82 1017.2
20260510043958 50 350 9.0 12.0 0.00 0.00 0.00 81 1017.1
20260510043458 50 5 8.0 15.0 0.00 0.00 0.00 81 1017.1
20260510042958 50 24 4.0 15.0 0.00 0.00 0.00 81 1017.1
20260510042457 50 64 8.0 12.0 0.00 0.00 0.00 81 1017.0
20260510041959 50 51 5.0 15.0 0.00 0.00 0.00 81 1017.1
20260510040958 50 5 9.0 13.0 0.00 0.00 0.00 81 1017.1
20260510040459 50 55 10.0 15.0 0.00 0.00 0.00 81 1017.1
20260510035500 51 64 5.0 17.0 0.00 0.00 0.00 81 1017.1
20260510034958 51 63 16.0 17.0 0.00 0.00 0.00 81 1017.1
20260510034459 51 34 13.0 14.0 0.00 0.00 0.00 81 1017.3
20260510033957 51 355 6.0 19.0 0.00 0.00 0.00 81 1017.3
20260510033459 51 42 14.0 19.0 0.00 0.00 0.00 81 1017.3
20260510032959 51 42 11.0 17.0 0.00 0.00 0.00 81 1017.3
20260510032457 51 36 12.0 17.0 0.00 0.00 0.00 81 1017.3
20260510032000 51 40 14.0 19.0 0.00 0.00 0.00 81 1017.2
20260510031458 51 44 16.0 19.0 0.00 0.00 0.00 81 1017.2
20260510030958 51 72 8.0 20.0 0.00 0.00 0.00 81 1017.2
20260510030457 51 38 16.0 19.0 0.00 0.00 0.00 81 1017.2
20260510025457 52 25 13.0 15.0 0.00 0.00 0.00 81 1017.2
20260510024957 52 21 9.0 15.0 0.00 0.00 0.00 82 1017.3
20260510023958 52 19 8.0 15.0 0.00 0.00 0.00 82 1017.2
20260510022957 52 16 7.0 16.0 0.00 0.00 0.00 82 1017.3
20260510022457 52 17 9.0 16.0 0.00 0.00 0.00 83 1017.1
20260510021957 52 11 13.0 14.0 0.00 0.00 0.00 83 1017.2
20260510021457 52 40 7.0 11.0 0.00 0.00 0.00 83 1017.2
20260510020957 52 11 9.0 13.0 0.00 0.00 0.00 83 1017.2
20260510020457 52 5 10.0 15.0 0.00 0.00 0.00 83 1017.2
20260510015958 52 19 9.0 15.0 0.00 0.00 0.00 83 1017.1
20260510015457 52 360 11.0 15.0 0.00 0.00 0.00 83 1017.2
20260510014957 52 27 12.0 17.0 0.00 0.00 0.00 83 1017.3
20260510014457 52 360 5.0 15.0 0.00 0.00 0.00 84 1017.2
20260510013458 52 31 11.0 15.0 0.00 0.00 0.00 84 1017.3
20260510012458 52 13 7.0 15.0 0.00 0.00 0.00 85 1017.4
20260510011957 52 24 11.0 14.0 0.00 0.00 0.00 86 1017.4
20260510011458 52 13 10.0 11.0 0.00 0.00 0.00 86 1017.5
20260510010956 52 13 10.0 10.0 0.00 0.00 0.00 86 1017.5
20260510010457 52 24 6.0 9.0 0.00 0.00 0.00 86 1017.5
20260510010000 52 5 5.0 10.0 0.00 0.00 0.00 86 1017.4
20260510005000 52 5 6.0 10.0 0.00 0.00 0.00 86 1017.3
20260510003958 52 341 6.0 9.0 0.00 0.00 0.00 86 1017.3
20260510003457 52 13 5.0 9.0 0.00 0.00 0.00 86 1017.4
20260510003000 52 16 4.0 11.0 0.00 0.00 0.00 86 1017.4
20260510002459 52 342 8.0 13.0 0.00 0.00 0.00 86 1017.4
20260510001958 52 360 8.0 13.0 0.00 0.00 0.00 86 1017.4
20260510000959 52 12 3.0 12.0 0.00 0.00 0.00 86 1017.4
20260510000458 52 343 10.0 10.0 0.00 0.00 0.00 86 1017.5
20260510000000 52 5 5.0 11.0 0.00 0.00 0.00 86 1017.4
20260509235457 52 360 9.0 13.0 0.00 0.00 0.00 86 1017.5
20260509234459 52 348 14.0 15.0 0.00 0.00 0.00 86 1017.5
20260509233958 52 340 10.0 15.0 0.00 0.00 0.00 86 1017.5
20260509233457 52 18 13.0 16.0 0.00 0.00 0.00 85 1017.5
20260509232957 52 360 10.0 16.0 0.00 0.00 0.00 85 1017.5
20260509232458 52 16 7.0 13.0 0.00 0.00 0.00 85 1017.4
20260509231958 52 33 8.0 13.0 0.00 0.00 0.00 85 1017.4
20260509231500 52 355 10.0 14.0 0.00 0.00 0.00 85 1017.6
20260509230959 52 22 9.0 14.0 0.00 0.00 0.00 85 1017.5
20260509230500 52 33 10.0 14.0 0.00 0.00 0.00 85 1017.5
20260509230003 52 30 13.0 15.0 0.00 0.00 0.00 85 1017.5
20260509225459 52 355 4.0 16.0 0.00 0.00 0.00 85 1017.4
20260509224957 52 344 12.0 17.0 0.00 0.00 0.00 85 1017.4
20260509224459 52 11 10.0 17.0 0.00 0.00 0.00 85 1017.3
20260509223959 52 341 10.0 17.0 0.00 0.00 0.00 85 1017.4
20260509222959 52 15 9.0 16.0 0.00 0.00 0.00 85 1017.4
20260509222459 52 332 13.0 17.0 0.00 0.00 0.00 84 1017.6
20260509221959 52 24 5.0 19.0 0.00 0.00 0.00 84 1017.4
20260509221459 52 28 11.0 19.0 0.00 0.00 0.00 84 1017.4
20260509220458 52 355 13.0 17.0 0.00 0.00 0.00 84 1017.4
20260509215458 52 5 10.0 15.0 0.00 0.00 0.00 83 1017.4
20260509214957 52 9 12.0 16.0 0.00 0.00 0.00 83 1017.4
20260509214456 52 344 11.0 17.0 0.00 0.00 0.00 83 1017.3
20260509213957 52 355 11.0 17.0 0.00 0.00 0.00 83 1017.3
20260509213457 52 342 10.0 17.0 0.00 0.00 0.00 83 1017.3
20260509212957 52 360 13.0 15.0 0.00 0.00 0.00 83 1017.3
20260509212457 52 17 12.0 13.0 0.00 0.00 0.00 83 1017.3
20260509211956 52 360 8.0 16.0 0.00 0.00 0.00 83 1017.4
20260509211457 52 360 12.0 17.0 0.00 0.00 0.00 83 1017.3
20260509210957 52 28 14.0 17.0 0.00 0.00 0.00 83 1017.4
20260509210457 52 10 11.0 14.0 0.00 0.00 0.00 83 1017.4
20260509205959 52 350 8.0 16.0 0.00 0.00 0.00 83 1017.4
20260509205457 52 12 10.0 16.0 0.00 0.00 0.00 83 1017.5
20260509203458 52 351 6.0 15.0 0.00 0.00 0.00 83 1017.5
20260509202459 52 360 9.0 14.0 0.00 0.00 0.00 83 1017.5
20260509201959 52 27 12.0 16.0 0.00 0.00 0.00 83 1017.5
20260509201500 52 36 7.0 16.0 0.00 0.00 0.00 83 1017.3
20260509200958 52 37 9.0 15.0 0.00 0.00 0.00 83 1017.3
20260509194958 52 34 4.0 17.0 0.00 0.00 0.00 82 1017.2
20260509194457 53 5 9.0 14.0 0.00 0.00 0.00 82 1017.3
20260509193958 53 15 5.0 17.0 0.00 0.00 0.00 82 1017.3
20260509193458 53 351 11.0 20.0 0.00 0.00 0.00 82 1017.2
20260509192959 53 5 13.0 20.0 0.00 0.00 0.00 82 1017.1
20260509192458 53 329 16.0 19.0 0.00 0.00 0.00 82 1017.0
20260509191959 53 14 13.0 19.0 0.00 0.00 0.00 82 1017.1
20260509191458 53 360 13.0 19.0 0.00 0.00 0.00 82 1017.3
20260509190958 53 5 12.0 21.0 0.00 0.00 0.00 82 1017.3
20260509190459 53 9 10.0 21.0 0.00 0.00 0.00 82 1017.2